[Iaude] MPEC J90: 2024 JC2 [a=1.23,e=0.23,i=2.7,H=26.4]
    mpec at cfa.harvard.edu 
    mpec at cfa.harvard.edu
       
    Sun May  5 19:27:53 EDT 2024
    
    
  
M.P.E.C. 2024-J90                                   Issued 2024 May 5, 23:26 UT
     The Minor Planet Electronic Circulars contain information on unusual
         minor planets, routine data on comets and natural satellites,
         and occasional editorial announcements.  They are published
    on behalf of Division F of the International Astronomical Union by the
          Minor Planet Center, Smithsonian Astrophysical Observatory,
                          Cambridge, MA 02138, U.S.A.
			  
             Prepared using the Tamkin Foundation Computer Network
                              MPC at CFA.HARVARD.EDU
            URL https://www.minorplanetcenter.net/    ISSN 1523-6714
                                    2024 JC2                                    
Observations:
     K24J02C*1C2024 05 03.39536315 29 11.749+13 11 19.61         20.75GVEJ090G96
     K24J02C 1C2024 05 03.40053515 29 11.893+13 10 59.88         20.72GVEJ090G96
     K24J02C 1C2024 05 03.40568815 29 12.037+13 10 39.07         20.57GVEJ090G96
     K24J02C 1C2024 05 03.41085015 29 12.239+13 10 18.55               VEJ090G96
     K24J02C KC2024 05 03.47531215 29 14.698+13 06 02.41         20.96GVEJ090I52
     K24J02C KC2024 05 03.47687815 29 14.730+13 05 55.72         21.82GVEJ090I52
     K24J02C KC2024 05 03.47785115 29 14.791+13 05 52.62         20.93GVEJ090I52
     K24J02C KC2024 05 03.47882015 29 14.845+13 05 48.66               VEJ090I52
     K24J02C KC2024 05 04.23377615 30 29.16 +12 19 08.7          21.7 GVEJ090H21
     K24J02C KC2024 05 04.24231315 30 29.36 +12 18 38.5          21.0 GVEJ090H21
     K24J02C KC2024 05 04.24515115 30 29.43 +12 18 28.1          21.4 GVEJ090H21
     K24J02C KC2024 05 04.34136515 30 35.147+12 13 06.10         21.31GVEJ090I52
     K24J02C KC2024 05 04.34261015 30 35.222+12 13 01.31         20.57GVEJ090I52
     K24J02C KC2024 05 04.34385915 30 35.208+12 12 57.53               VEJ090I52
     K24J02C KC2024 05 04.34511015 30 35.233+12 12 53.75               VEJ090I52
     K24J02C !C2024 05 04.36499 15 30 36.75 +12 11 37.5          20.7 GVEJ090673
     K24J02C !C2024 05 04.36953 15 30 36.81 +12 11 21.5                VEJ090673
     K24J02C 1C2024 05 05.95270 15 32 30.37 +10 43 56.5          21.3 VXEJ090033
     K24J02C 1C2024 05 05.95563 15 32 30.43 +10 43 47.4          21.3 VXEJ090033
     K24J02C 1C2024 05 05.95855 15 32 30.48 +10 43 38.6          21.2 VXEJ090033
Observer details:
033 Karl Schwarzschild Observatory, Tautenburg.  Observers S. Melnikov, C.
    Hogner, F. Ludwig, M. Hartmann, B. Stecklum.  Measurer B. Stecklum.
    1.34-m f/3 Schmidt + CCD.
673 Table Mountain Observatory, Wrightwood.  Observer J. Pittichova.  1.0-m
    f/15 reflector + CCD.
G96 Mt. Lemmon Survey.  Observer H. Groeller.  Measurers T. Beuden, V. F.
    Carvajal, D. Fay, J. B. Fazekas, D. C. Fuls, A. R. Gibbs, A. D. Grauer, H.
    Groeller, J. K. Hogan, R. A. Kowalski, S. M. Larson, G. J. Leonard, D.
    Rankin, R. L. Seaman, F. C. Shelly, K. W. Wierzchos.  1.5-m reflector +
    10K CCD.
H21 Astronomical Research Observatory, Westfield.  Observer R. Holmes.
    Measurers T. Linder, R. Holmes, L. Horn.  0.81-m f/4.0 astrograph + CCD.
I52 Steward Observatory, Mt. Lemmon Station.  Observer V. F. Carvajal.
    Measurers T. Beuden, V. F. Carvajal, D. Fay, J. B. Fazekas, D. C. Fuls, A.
    R. Gibbs, A. D. Grauer, H. Groeller, J. K. Hogan, R. A. Kowalski, S. M.
    Larson, G. J. Leonard, D. Rankin, R. L. Seaman, F. C. Shelly, K. W.
    Wierzchos.  1.0-m prime focus + CCD.
Orbital elements:
2024 JC2                                                 Earth MOID = 0.0102 AU
Epoch 2024 Mar. 31.0 TT = JDT 2460400.5                 MPC                     
M  14.63329              (2000.0)            P               Q                  
n   0.71851086     Peri.  331.62489     -0.96325743     -0.26837029             
a   1.2345646      Node   192.82107     +0.25457004     -0.89971107             
e   0.2251653      Incl.    2.73968     +0.08561083     -0.34423448             
P   1.37           H   26.40          G   0.15           U   8                  
Residuals in seconds of arc
240503 G96  0.1+  0.3-    240503 I52  0.2-  0.3+    240504 I52  0.4+  0.2+
240503 G96  0.0   0.3+    240504 H21  0.0   0.2+    240504 673  0.2+  0.5-
240503 G96  0.2-  0.1-    240504 H21  0.0   0.1+    240504 673  0.0   0.4-
240503 G96  0.5+  0.3-    240504 H21  0.0   0.2-    240505 033  0.1-  0.1+
240503 I52  0.1+  0.0     240504 I52  0.0   0.7-    240505 033  0.1-  0.1-
240503 I52  0.5-  0.4-    240504 I52  0.8+  1.1-    240505 033  0.2-  0.0
240503 I52  0.3-  0.4+    240504 I52  0.3+  0.5-
Ephemeris:
2024 JC2                 a,e,i = 1.23, 0.23, 3                   q = 0.9566
Date    TT    R. A. (2000) Decl.     Delta      r    Elong.  Phase     V
2024 04 05    04 34 32.0 +22 52 49   0.03764 0.9793    55.0   123.2    24.3
...
2024 04 20    13 36 36.3 +53 17 28   0.01678 1.0119   115.1    64.0    19.8
...
2024 04 28    15 16 14.0 +21 09 27   0.03374 1.0337   142.3    36.6    20.6
...
2024 05 04    15 30 07.8 +12 34 35   0.04995 1.0516   149.4    29.2    21.3
2024 05 05    15 31 24.9 +11 36 29   0.05278 1.0547   150.2    28.3    21.4
2024 05 06    15 32 31.6 +10 43 16   0.05565 1.0578   151.0    27.5    21.5
...
2024 05 12    15 36 49.7 +06 34 24   0.07359 1.0772   154.8    23.6    22.0
...
2024 05 20    15 39 37.8 +02 45 25   0.09961 1.1044   157.2    20.8    22.6
...
2024 06 04    15 43 33.5 -02 20 18   0.1564  1.1576   154.5    22.2    23.8
A. U. Tomatic                (C) Copyright 2024 MPC           M.P.E.C. 2024-J90
    
    
More information about the Iaude
mailing list